Total_Precipitation_Accumulation
0.93 1.03 1.06 0.85 0.61 0.49 0.47 0.45 0.44 0.47 0.52 0.60 0.55 0.52 0.58 0.62 0.59 0.68 0.78 0.89 0.98 1.03 1.04 1.07 1.14 1.20 1.29 1.34 1.45 1.52 1.55 1.48 1.22 1.08 0.93 0.81 0.83 0.83 0.84 0.80 0.87 0.90 0.82
0.80 0.79 0.65 0.47 0.37 0.34 0.30 0.25 0.22 0.22 0.22 0.29 0.32 0.32 0.40 0.51 0.52 0.58 0.63 0.65 0.71 0.75 0.78 0.85 0.90 0.97 1.06 1.14 1.21 1.30 1.42 1.45 1.35 1.19 1.05 0.91 0.81 0.82 0.97 1.02 1.01 0.94 0.92
0.44 0.42 0.39 0.32 0.30 0.26 0.21 0.19 0.17 0.16 0.16 0.20 0.23 0.26 0.29 0.39 0.50 0.56 0.58 0.54 0.53 0.52 0.52 0.56 0.65 0.74 0.85 0.93 0.99 1.07 1.20 1.26 1.34 1.24 1.16 1.07 0.91 0.83 0.95 0.97 1.04 1.21 1.13
0.25 0.23 0.22 0.23 0.23 0.23 0.23 0.23 0.18 0.14 0.16 0.15 0.14 0.16 0.24 0.34 0.43 0.51 0.55 0.52 0.49 0.49 0.49 0.50 0.53 0.54 0.60 0.70 0.84 1.02 1.17 1.30 1.35 1.28 1.23 1.18 1.10 0.99 1.03 1.09 1.17 1.26 1.32
0.15 0.16 0.18 0.18 0.18 0.18 0.20 0.20 0.17 0.14 0.12 0.08 0.06 0.08 0.16 0.21 0.26 0.40 0.45 0.45 0.48 0.45 0.47 0.51 0.52 0.48 0.47 0.51 0.52 0.70 0.91 1.13 1.26 1.32 1.32 1.33 1.26 1.18 1.06 1.11 1.22 1.36 1.48
0.03 0.05 0.08 0.11 0.13 0.15 0.15 0.15 0.13 0.11 0.09 0.07 0.05 0.05 0.07 0.08 0.14 0.21 0.30 0.40 0.47 0.50 0.51 0.54 0.52 0.46 0.50 0.48 0.47 0.49 0.59 0.73 0.90 1.04 1.12 1.17 1.22 1.29 1.34 1.34 1.36 1.43 1.51
0.01 0.01 0.02 0.03 0.04 0.05 0.05 0.06 0.05 0.04 0.04 0.04 0.04 0.04 0.04 0.04 0.04 0.08 0.17 0.33 0.47 0.48 0.47 0.61 0.67 0.60 0.59 0.62 0.63 0.57 0.50 0.47 0.60 0.80 0.92 0.97 1.05 1.15 1.35 1.40 1.42 1.42 1.33
0.00 0.00 0.01 0.01 0.02 0.02 0.02 0.02 0.02 0.02 0.02 0.03 0.04 0.07 0.05 0.02 0.02 0.03 0.08 0.23 0.38 0.42 0.42 0.54 0.79 0.83 0.73 0.69 0.73 0.82 0.74 0.57 0.55 0.59 0.73 0.84 0.89 1.03 1.34 1.56 1.52 1.32 1.24
0.00 0.00 0.00 0.01 0.01 0.01 0.01 0.01 0.01 0.01 0.02 0.03 0.03 0.05 0.05 0.04 0.03 0.04 0.07 0.18 0.28 0.32 0.36 0.48 0.64 0.79 0.73 0.69 0.69 0.76 0.80 0.70 0.63 0.62 0.57 0.64 0.76 0.92 1.17 1.41 1.49 1.43 1.29
0.00 0.00 0.00 0.00 0.01 0.02 0.01 0.01 0.01 0.02 0.03 0.02 0.02 0.02 0.02 0.02 0.03 0.05 0.06 0.11 0.15 0.15 0.22 0.38 0.54 0.54 0.50 0.55 0.67 0.78 0.87 0.72 0.61 0.69 0.68 0.70 0.71 0.88 1.20 1.38 1.45 1.40 1.28
0.00 0.00 0.01 0.01 0.01 0.02 0.03 0.02 0.02 0.02 0.03 0.03 0.03 0.03 0.03 0.02 0.03 0.05 0.07 0.08 0.10 0.10 0.15 0.29 0.38 0.35 0.34 0.42 0.53 0.67 0.80 0.66 0.68 0.82 0.86 0.83 0.89 0.94 1.06 1.18 1.34 1.42 1.31
0.00 0.01 0.01 0.01 0.01 0.02 0.03 0.02 0.02 0.02 0.03 0.05 0.06 0.06 0.06 0.06 0.04 0.05 0.08 0.09 0.10 0.11 0.16 0.23 0.26 0.22 0.23 0.27 0.33 0.46 0.57 0.64 0.73 0.85 0.93 0.90 0.85 0.90 0.96 0.99 1.09 1.18 1.14
0.00 0.01 0.01 0.01 0.01 0.01 0.02 0.02 0.02 0.02 0.03 0.05 0.08 0.08 0.08 0.08 0.07 0.05 0.06 0.08 0.09 0.11 0.14 0.18 0.19 0.20 0.22 0.25 0.28 0.35 0.49 0.68 0.85 0.86 0.80 0.77 0.79 0.84 0.84 0.94 1.02 1.07 1.07
0.00 0.00 0.00 0.01 0.01 0.02 0.01 0.01 0.02 0.02 0.03 0.04 0.06 0.07 0.07 0.10 0.07 0.06 0.09 0.11 0.11 0.13 0.15 0.15 0.15 0.20 0.23 0.24 0.29 0.40 0.56 0.75 0.83 0.75 0.71 0.61 0.63 0.78 0.82 0.82 0.86 0.89 0.94
0.00 0.00 0.00 0.00 0.01 0.03 0.02 0.01 0.01 0.01 0.02 0.03 0.05 0.07 0.05 0.05 0.05 0.06 0.09 0.10 0.10 0.10 0.13 0.19 0.24 0.30 0.35 0.42 0.51 0.58 0.59 0.63 0.69 0.62 0.66 0.60 0.57 0.65 0.69 0.68 0.69 0.66 0.68
0.00 0.00 0.00 0.00 0.01 0.02 0.03 0.02 0.02 0.02 0.02 0.02 0.02 0.04 0.05 0.03 0.04 0.05 0.07 0.09 0.08 0.10 0.17 0.25 0.33 0.41 0.47 0.53 0.57 0.58 0.57 0.58 0.62 0.59 0.57 0.57 0.52 0.52 0.54 0.55 0.57 0.59 0.63
0.00 0.00 0.01 0.01 0.01 0.02 0.02 0.04 0.05 0.04 0.02 0.02 0.02 0.03 0.03 0.04 0.04 0.05 0.06 0.08 0.09 0.11 0.15 0.26 0.46 0.50 0.48 0.53 0.56 0.54 0.45 0.39 0.39 0.41 0.39 0.38 0.37 0.38 0.41 0.43 0.43 0.48 0.51
0.00 0.00 0.01 0.01 0.01 0.02 0.02 0.03 0.04 0.05 0.06 0.06 0.04 0.04 0.04 0.05 0.05 0.05 0.06 0.09 0.10 0.10 0.12 0.18 0.31 0.35 0.38 0.43 0.42 0.38 0.31 0.24 0.23 0.23 0.22 0.23 0.24 0.26 0.28 0.31 0.31 0.31 0.36
0.00 0.01 0.01 0.01 0.02 0.02 0.03 0.03 0.03 0.03 0.04 0.05 0.06 0.05 0.05 0.06 0.07 0.06 0.06 0.08 0.09 0.11 0.13 0.17 0.21 0.24 0.25 0.24 0.24 0.23 0.21 0.20 0.18 0.16 0.17 0.19 0.19 0.19 0.18 0.19 0.23 0.26 0.26
0.01 0.02 0.02 0.02 0.02 0.02 0.03 0.04 0.04 0.04 0.05 0.05 0.06 0.07 0.09 0.10 0.10 0.09 0.08 0.09 0.10 0.11 0.12 0.13 0.15 0.15 0.16 0.16 0.17 0.19 0.19 0.21 0.20 0.18 0.16 0.16 0.16 0.15 0.14 0.14 0.15 0.16 0.18
0.01 0.02 0.03 0.03 0.03 0.03 0.04 0.05 0.05 0.06 0.07 0.07 0.07 0.09 0.10 0.11 0.13 0.13 0.13 0.12 0.13 0.14 0.14 0.13 0.13 0.14 0.15 0.17 0.19 0.20 0.19 0.21 0.22 0.20 0.18 0.17 0.16 0.14 0.13 0.13 0.14 0.14 0.15
0.02 0.02 0.03 0.03 0.04 0.04 0.05 0.05 0.06 0.06 0.07 0.08 0.09 0.11 0.12 0.13 0.14 0.16 0.15 0.14 0.14 0.15 0.16 0.17 0.16 0.16 0.18 0.20 0.22 0.23 0.23 0.23 0.24 0.23 0.21 0.19 0.17 0.15 0.13 0.13 0.13 0.14 0.15
0.02 0.02 0.03 0.04 0.05 0.05 0.06 0.06 0.07 0.07 0.09 0.09 0.11 0.12 0.14 0.15 0.16 0.16 0.16 0.15 0.15 0.16 0.18 0.18 0.18 0.18 0.19 0.21 0.24 0.25 0.26 0.26 0.28 0.29 0.28 0.24 0.20 0.16 0.14 0.13 0.13 0.13 0.14
0.02 0.02 0.03 0.04 0.05 0.06 0.06 0.06 0.07 0.08 0.09 0.10 0.11 0.13 0.14 0.16 0.17 0.18 0.17 0.16 0.16 0.17 0.17 0.19 0.20 0.19 0.19 0.22 0.24 0.27 0.28 0.29 0.30 0.32 0.33 0.32 0.26 0.21 0.17 0.15 0.14 0.14 0.15
0.02 0.02 0.03 0.04 0.05 0.07 0.07 0.08 0.09 0.09 0.10 0.11 0.13 0.14 0.14 0.14 0.15 0.17 0.18 0.17 0.17 0.17 0.18 0.21 0.22 0.23 0.22 0.23 0.25 0.28 0.33 0.33 0.31 0.32 0.35 0.35 0.31 0.27 0.24 0.20 0.18 0.16 0.16
0.01 0.02 0.04 0.05 0.06 0.07 0.08 0.09 0.10 0.11 0.12 0.13 0.13 0.15 0.16 0.16 0.16 0.16 0.17 0.17 0.16 0.16 0.17 0.19 0.21 0.22 0.23 0.23 0.26 0.31 0.35 0.32 0.30 0.31 0.34 0.36 0.35 0.31 0.29 0.27 0.23 0.21 0.20